Regional Weather Roundup
Issued by NWS

Home | Current Version | Previous Version | Text Only | Print | Product List | Glossary Off
Versions: 1 2 3 4 5 6 7 8 9 10 11 12 13 14 15 16 17 18 19 20 21 22 23 24 25 26 27 28 29 30 31 32 33 34 35 36 37 38 39 40 41 42 43 44 45 46 47 48 49 50

000
ASUS44 KMEG 181000
RWRTN
TENNESSEE HOURLY STATE WEATHER ROUNDUP
NATIONAL WEATHER SERVICE MEMPHIS TN
500 AM CDT FRI APR 18 2014

TNZ002-004-019-021-049-052-054-088>092-181100-
WEST TENNESSEE

CITY           SKY/WX    TMP DP  RH WIND       PRES   REMARKS
MEMPHIS INTL   MOCLDY    56  45  66 CALM      30.21R
NWS MEMPHIS      N/A     52 N/A N/A MISG        N/A
JACKSON        PTCLDY    52  43  71 CALM      30.23R
DYERSBURG      MOCLDY    54  39  58 NE5       30.24F
UNION CITY     CLOUDY    48  45  87 CALM      30.23F
LEXINGTON      CLEAR     50  45  81 CALM      30.23S
$$

TNZ008-025-027-028-033-062-065-066-181100-
NORTH MIDDLE TENNESSEE

CITY           SKY/WX    TMP DP  RH WIND       PRES   REMARKS
NASHVILLE      CLOUDY    54  44  69 CALM      30.27R
CLARKSVILLE    MOCLDY    50  40  68 E3        30.25S
CROSSVILLE     CLOUDY    50  37  61 CALM      30.30R
$$

TNZ061-075-076-078-094-096-097-181100-
SOUTH MIDDLE TENNESSEE

CITY           SKY/WX    TMP DP  RH WIND       PRES   REMARKS
TULLAHOMA      PTCLDY    54  37  54 CALM      30.28S
WINCHESTER     CLOUDY    55  37  50 SE6       30.27S
COLUMBIA       CLEAR     54  50  87 CALM      30.24R
$$

TNZ017-018-042-046-047-181100-
NORTHEAST TENNESSEE

CITY           SKY/WX    TMP DP  RH WIND       PRES   REMARKS
TRI CITIES     CLOUDY    40  30  67 CALM      30.34R
ELIZABETHTON   SUNNY     45  27  49 CALM      30.34R
$$

TNZ012-013-036-069-073-074-181100-
CENTRAL EAST TENNESSEE

CITY           SKY/WX    TMP DP  RH WIND       PRES   REMARKS
KNOXVILLE      CLOUDY    49  37  63 NE7       30.30R
OAK RIDGE      CLOUDY    47  40  76 CALM      30.32R
$$

TNZ083-085-099-181100-
SOUTHEAST TENNESSEE

CITY           SKY/WX    TMP DP  RH WIND       PRES   REMARKS
CHATTANOOGA    CLOUDY    54  40  59 CALM      30.29S
$$

SKY/WX REPORTED AS FAIR MEANS FEW OR NO CLOUDS BELOW
12 THOUSAND FEET.




USA.gov is the U.S. government's official web portal to all federal, state and local government web resources and services.